Content
SEND FEEDBACK

Daily
Averages
Monthly
Summary
United States of America

EUREKA, CALIFORNIA


Home > North America > United States > California
Elevation: 59 feet     Latitude: 40 48N     Longitude: 124 07W

WEATHER
 
SELECT A DAY
Number of Records: 244,819;   Date Range: 1/1/95 - 11/22/14
 
SHARE

PRINT THIS DATA

[ ← Previous Day ]
WEATHER ALMANAC - JANUARY 21, 2013
[ Next Day → ]
[ °C ]   °F
Weather ElementAverageHighLow
Temperature46.5 °F68 °F (1:53 pm)35.1 °F (5:53 am)
Dewpoint35 °F43 °F (4:53 pm)26.1 °F (1:53 pm)
Humidity69.6 %93 % (1:53 am)21 % (1:53 pm)
Barometer30.13 in30.19 in (9:53 am)30.08 in (11:53 pm)
Wind Speed3.8 mph8.1 mph (2:53 am)
Weather ElementAverage
Visibility9.7 mi
Wind DirectionENE (83.5 °)

Weather ElementTotal
Precipitation---
Heating Degree Days13.5 (Base 65)
Growing Degree Days1.6 (Base 50)
Averaged from 23 records on January 21, 2013
WEATHER CONDITIONS BREAKOUT
WIND DIRECTION BREAKOUT
WEATHER BY HOUR - JANUARY 21, 2013
[ °C ]   °F
Local TimeTemperatureDewpointHumidityBarometerVisibilityWind DirectionWind SpeedGust SpeedPrecipitationEventsConditions
1:53 AM36.0 °F34.0 °F93 %30.17 in10.0 miEast (100°)4.6 mphClear
2:53 AM42.1 °F32.0 °F67 %30.14 in10.0 miEast (100°)8.1 mphClear
3:53 AM37.0 °F32.0 °F82 %30.13 in10.0 miEast (100°)6.9 mphClear
4:53 AM37.0 °F30.9 °F79 %30.13 in10.0 miEast (100°)5.8 mphClear
5:53 AM35.1 °F32.0 °F89 %30.13 in9.0 miCalmClear
6:53 AM35.1 °F32.0 °F89 %30.15 in10.0 miEast (100°)5.8 mphClear
7:53 AM35.1 °F30.9 °F85 %30.16 in10.0 miEast (90°)5.8 mphClear
8:53 AM39.0 °F36.0 °F89 %30.18 in10.0 miCalmClear
9:53 AM51.1 °F41.0 °F68 %30.19 in10.0 miCalmClear
10:53 AM59.0 °F34.0 °F39 %30.18 in10.0 miENE (70°)5.8 mphClear
11:53 AM64.0 °F34.0 °F33 %30.14 in10.0 miNorthClear
12:53 PM60.1 °F42.1 °F51 %30.14 in10.0 miNNW (330°)3.5 mphClear
1:53 PM68.0 °F26.1 °F21 %30.11 in10.0 miCalmClear
2:53 PM59.0 °F34.0 °F39 %30.12 in10.0 miNorth (360°)5.8 mphClear
3:53 PM61.0 °F30.0 °F31 %30.12 in10.0 miCalmClear
4:53 PM48.9 °F43.0 °F80 %30.11 in10.0 miCalmClear
5:53 PM43.0 °F39.9 °F89 %30.10 in7.0 miCalmClear
6:53 PM42.1 °F39.0 °F89 %30.11 in8.0 miEast (90°)4.6 mphClear
7:53 PM39.0 °F37.0 °F93 %30.12 in9.0 miEast (100°)3.5 mphClear
8:53 PM39.0 °F37.0 °F93 %30.14 in10.0 miEast (90°)4.6 mphClear
9:53 PM45.0 °F37.0 °F74 %30.13 in10.0 miEast (100°)6.9 mphClear
10:53 PM46.9 °F36.0 °F66 %30.12 in10.0 miEast (90°)6.9 mphClear
11:53 PM46.9 °F34.0 °F61 %30.08 in10.0 miEast (100°)5.8 mphClear
Hourly data recorded from KACV, located miles away from Eureka, California







STORIES FROM OUR PARTNERS